This demonstration page uses our WeatherBlox Daily Observations layout. Learn more.

Left ArrowRight Arrow

53.62937, 11.41316

Hourly Observations for December 6, 2019

Temp ( °F °C ) Dew Point ( °F °C ) Humidity (%) Winds ( mph kmh ) Pressure ( in mb ) Visibility ( mi km ) Precip ( " mm )
6:50 am 06:50 Cloudy with Drizzle 43 6 39 4 87 87 WSW 20 31 29.68 1005 6 9 N/A
7:20 am 07:20 Cloudy with Drizzle 43 6 39 4 87 87 WSW 17 28 29.68 1005 5 8 N/A
7:50 am 07:50 Cloudy 43 6 41 5 93 93 WSW 18 30 29.68 1005 6 9 N/A
8:20 am 08:20 Cloudy 43 6 41 5 93 93 SW 16 26 29.68 1005 4 6 N/A
8:50 am 08:50 Cloudy 43 6 39 4 87 87 SW 15 24 29.68 1005 6 9 N/A
9:20 am 09:20 Cloudy 43 6 39 4 87 87 SW 15 24 29.71 1006 4 6 N/A
9:50 am 09:50 Cloudy with Drizzle 43 6 39 4 87 87 SW 14 22 29.71 1006 4 6 N/A
10:20 am 10:20 Cloudy with Drizzle 41 5 39 4 93 93 SW 15 24 29.71 1006 2 4 N/A
10:50 am 10:50 Cloudy with Drizzle 43 6 39 4 87 87 SW 14 22 29.71 1006 5 8 N/A
11:20 am 11:20 Cloudy with Drizzle 43 6 41 5 93 93 SW 15 24 29.71 1006 2 3 N/A
11:50 am 11:50 Cloudy with Drizzle 43 6 41 5 93 93 SW 14 22 29.68 1005 2 3 N/A
12:20 pm 12:20 Cloudy with Drizzle 43 6 41 5 93 93 SW 14 22 29.68 1005 2 3 N/A
12:50 pm 12:50 Mostly Cloudy with Drizzle 43 6 41 5 93 93 SW 14 22 29.65 1004 2 4 N/A
1:20 pm 13:20 Mostly Cloudy with Drizzle 43 6 41 5 93 93 SW 13 20 29.65 1004 2 4 N/A
1:50 pm 13:50 Mostly Cloudy with Drizzle 43 6 41 5 93 93 SW 13 20 29.65 1004 2 4 N/A
2:20 pm 14:20 Mostly Cloudy with Drizzle 43 6 41 5 93 93 SW 14 22 29.62 1003 2 3 N/A
2:50 pm 14:50 Mostly Cloudy with Drizzle 43 6 41 5 93 93 SW 13 20 29.62 1003 3 5 N/A
3:20 pm 15:20 Mostly Cloudy with Drizzle 43 6 41 5 93 93 SW 15 24 29.59 1002 3 5 N/A
3:50 pm 15:50 Cloudy with Drizzle 43 6 41 5 93 93 SW 15 24 29.59 1002 3 5 N/A
4:20 pm 16:20 Cloudy with Drizzle 43 6 41 5 93 93 SW 13 20 29.59 1002 3 5 N/A
4:50 pm 16:50 Mostly Cloudy with Drizzle 43 6 41 5 93 93 SW 15 24 29.59 1002 2 3 N/A
5:20 pm 17:20 Mostly Cloudy 43 6 41 5 93 93 SW 13 20 29.59 1002 30 48 N/A
5:50 pm 17:50 Mostly Cloudy 43 6 41 5 93 93 SW 13 20 29.56 1001 4 7 N/A
6:20 pm 18:20 Mostly Cloudy with Drizzle 43 6 41 5 93 93 SW 13 20 29.56 1001 2 4 N/A
6:50 pm 18:50 Mostly Cloudy with Drizzle 43 6 41 5 93 93 SW 12 19 29.56 1001 2 4 N/A
7:20 pm 19:20 Mostly Cloudy with Drizzle 43 6 41 5 93 93 SW 12 19 29.53 1000 2 4 N/A
7:50 pm 19:50 Mostly Cloudy with Drizzle 43 6 41 5 93 93 SW 13 20 29.53 1000 2 4 N/A

Powered by AerisWeather